This is the latest recevied weather packets stored in our database for station/object KB9MLJ. If no packets are shown the sender has not sent any weather packets the latest 10 day(s).
| Time | Temp. | Humidity | Pressure | Rain* | Wind** | Luminosity | Snow |
|---|---|---|---|---|---|---|---|
| 1777482764 | 13.89° C | 65% | 1013 hPa | 0 mm | - | 155 W/m² | - |
| 1777482460 | 14.44° C | 64% | 1012.7 hPa | 0 mm | - | 126 W/m² | - |
| 1777482158 | 15° C | 63% | 1013.3 hPa | 0 mm | - | 317 W/m² | - |
| 1777481855 | 15° C | 65% | 1013 hPa | 0 mm | - | 202 W/m² | - |
| 1777481552 | 14.44° C | 65% | 1013 hPa | 0 mm | - | 580 W/m² | - |
| 1777481249 | 14.44° C | 65% | 1013 hPa | 0 mm | - | 232 W/m² | - |
| 1777480946 | 15° C | 63% | 1013 hPa | 0 mm | - | 260 W/m² | - |
| 1777480642 | 14.44° C | 64% | 1013 hPa | 0 mm | - | 934 W/m² | - |
| 1777480339 | 14.44° C | 67% | 1013.3 hPa | 0 mm | - | 824 W/m² | - |
| 1777480035 | 13.89° C | 68% | 1013.3 hPa | 0 mm | - | 853 W/m² | - |
| 1777479732 | 13.89° C | 69% | 1013.3 hPa | 0 mm | - | 152 W/m² | - |
| 1777479430 | 13.89° C | 70% | 1013.3 hPa | 0 mm | - | 937 W/m² | - |
| 1777479126 | 13.89° C | 70% | 1013 hPa | 0 mm | - | 789 W/m² | - |
| 1777478823 | 14.44° C | 68% | 1013.3 hPa | 0 mm | - | 213 W/m² | - |
| 1777478519 | 13.89° C | 70% | 1013.3 hPa | 0 mm | - | 780 W/m² | - |
| 1777478216 | 13.89° C | 68% | 1013.3 hPa | 0 mm | - | 139 W/m² | - |
| 1777477913 | 13.89° C | 70% | 1013.3 hPa | 0 mm | - | 534 W/m² | - |
| 1777477608 | 13.89° C | 70% | 1013 hPa | 0 mm | - | 289 W/m² | - |
| 1777477305 | 13.89° C | 70% | 1013.3 hPa | 0 mm | - | 161 W/m² | - |
| 1777477001 | 13.89° C | 71% | 1013 hPa | 0 mm | - | 814 W/m² | - |
| 1777476699 | 14.44° C | 71% | 1013 hPa | 0 mm | - | 147 W/m² | - |
| 1777476395 | 14.44° C | 71% | 1013 hPa | 0 mm | - | 891 W/m² | - |
| 1777476092 | 13.89° C | 71% | 1013.3 hPa | 0 mm | - | 838 W/m² | - |
| 1777475793 | 14.44° C | 73% | 1013 hPa | 0 mm | - | 178 W/m² | - |
| 1777475490 | 13.89° C | 72% | 1013 hPa | 0 mm | - | 832 W/m² | - |
* Rain latest hour (hover to see other rain measurements)
** Current wind speed in m/s (hover to see current wind gust speed)